This is the latest recevied weather packets stored in our database for station/object VK6HGR-1. If no packets are shown the sender has not sent any weather packets the latest 10 day(s).
| Time | Temp. | Humidity | Pressure | Rain* | Wind** | Luminosity | Snow |
|---|---|---|---|---|---|---|---|
| 1777865411 | 21.11° C | 54% | 1024.7 hPa | - | - | - | - |
| 1777864511 | 20.56° C | 55% | 1024.7 hPa | - | - | - | - |
| 1777863610 | 20° C | 56% | 1024.9 hPa | - | - | - | - |
| 1777862711 | 19.44° C | 56% | 1025.1 hPa | - | - | - | - |
| 1777861812 | 19.44° C | 55% | 1025.2 hPa | - | - | - | - |
| 1777860912 | 18.89° C | 57% | 1025.2 hPa | - | - | - | - |
| 1777860011 | 18.33° C | 59% | 1025.3 hPa | - | - | - | - |
| 1777859110 | 17.22° C | 62% | 1025.4 hPa | - | - | - | - |
| 1777858214 | 16.67° C | 65% | 1025.4 hPa | - | - | - | - |
| 1777857311 | 16.11° C | 67% | 1025.5 hPa | - | - | - | - |
| 1777856412 | 15.56° C | 69% | 1025.5 hPa | - | - | - | - |
| 1777855512 | 14.44° C | 70% | 1025.5 hPa | - | - | - | - |
| 1777854620 | 13.89° C | 72% | 1025.6 hPa | - | - | - | - |
| 1777853712 | 13.33° C | 73% | 1025.5 hPa | - | - | - | - |
| 1777852811 | 12.78° C | 74% | 1025.4 hPa | - | - | - | - |
| 1777851911 | 12.22° C | 73% | 1025.2 hPa | - | - | - | - |
| 1777851012 | 11.67° C | 73% | 1025.1 hPa | - | - | - | - |
| 1777850112 | 11.67° C | 72% | 1024.8 hPa | - | - | - | - |
| 1777849212 | 11.67° C | 71% | 1024.7 hPa | - | - | - | - |
| 1777848311 | 12.22° C | 72% | 1024.8 hPa | - | - | - | - |
| 1777847574 | 12.22° C | 73% | 1024.8 hPa | - | - | - | - |
| 1777847410 | 12.22° C | 73% | 1024.8 hPa | - | - | - | - |
| 1777846511 | 12.22° C | 73% | 1024.7 hPa | - | - | - | - |
| 1777845611 | 12.22° C | 72% | 1024.6 hPa | - | - | - | - |
| 1777844712 | 12.22° C | 72% | 1024.6 hPa | - | - | - | - |
* Rain since midnight (hover to see other rain measurements)
** Current wind speed in m/s (hover to see current wind gust speed)